Location: Czu?�w
(50.1404°N, 18.9919°E)
Time: 13:44:56
(UTC+00:00)

SAR-Lupe-1 - Pass Details

Date: 27 October 2020
Orbit: 480 x 485 km, 98.2° (Epoch: 22 November)

Event Time Altitude Azimuth Distance (km) Brightness Sun altitude
Rises 16:36:55 0° 17° (NNE) 2,557 7.5 -11.5°
Reaches altitude 10° 16:39:01 10° 21° (NNE) 1,672 6.5 -11.8°
Maximum altitude 16:42:34 59° 102° (ESE) 564 4.0 -12.4°
Drops below altitude 10° 16:46:05 10° 183° (S) 1,660 6.9 -12.9°
Sets 16:48:10 0° 187° (S) 2,535 7.9 -13.3°
